This is the latest recevied weather packets stored in our database for station/object KJ4AJP. If no packets are shown the sender has not sent any weather packets the latest 10 day(s).
| Time | Temp. | Humidity | Pressure | Rain* | Wind** | Luminosity | Snow |
|---|---|---|---|---|---|---|---|
| 1777396341 | 26.67° C | 66% | 1015.2 hPa | 0 mm | - | 359 W/m² | - |
| 1777396039 | 26.11° C | 68% | 1015.2 hPa | 0 mm | - | 931 W/m² | - |
| 1777395733 | 26.11° C | 72% | 1015.1 hPa | 0 mm | - | 677 W/m² | - |
| 1777395429 | 25.56° C | 69% | 1015 hPa | 0 mm | - | 824 W/m² | - |
| 1777395127 | 25.56° C | 71% | 1015 hPa | 0 mm | - | 850 W/m² | - |
| 1777394824 | 25.56° C | 71% | 1015.1 hPa | 0 mm | - | 552 W/m² | - |
| 1777394520 | 25.56° C | 70% | 1015.3 hPa | 0 mm | - | 265 W/m² | - |
| 1777394216 | 25.56° C | 71% | 1015.3 hPa | 0 mm | - | 815 W/m² | - |
| 1777393912 | 25° C | 71% | 1015.3 hPa | 0 mm | - | 736 W/m² | - |
| 1777393611 | 25° C | 74% | 1015.3 hPa | 0 mm | - | 771 W/m² | - |
| 1777393307 | 24.44° C | 75% | 1015.6 hPa | 0 mm | - | 734 W/m² | - |
| 1777393004 | 24.44° C | 75% | 1015.7 hPa | 0 mm | - | 268 W/m² | - |
| 1777392699 | 24.44° C | 76% | 1015.7 hPa | 0 mm | - | 244 W/m² | - |
| 1777392396 | 23.89° C | 76% | 1015.8 hPa | 0 mm | - | 292 W/m² | - |
| 1777392091 | 24.44° C | 75% | 1015.8 hPa | 0 mm | - | 271 W/m² | - |
| 1777391786 | 24.44° C | 76% | 1015.9 hPa | 0 mm | - | 300 W/m² | - |
| 1777391483 | 23.89° C | 77% | 1015.7 hPa | 0 mm | - | 276 W/m² | - |
| 1777391179 | 23.89° C | 76% | 1016 hPa | 0 mm | - | 240 W/m² | - |
| 1777390875 | 23.89° C | 75% | 1016.3 hPa | 0 mm | - | 203 W/m² | - |
| 1777390573 | 23.89° C | 76% | 1016 hPa | 0 mm | - | 253 W/m² | - |
| 1777390269 | 24.44° C | 74% | 1016.3 hPa | 0 mm | - | 284 W/m² | - |
| 1777389964 | 25° C | 71% | 1015.9 hPa | 0 mm | - | 342 W/m² | - |
| 1777389661 | 25° C | 75% | 1015.8 hPa | 0 mm | - | 367 W/m² | - |
| 1777389358 | 24.44° C | 73% | 1016.1 hPa | 0 mm | - | 471 W/m² | - |
| 1777389056 | 24.44° C | 75% | 1016.3 hPa | 0 mm | - | 352 W/m² | - |
* Rain latest hour (hover to see other rain measurements)
** Current wind speed in m/s (hover to see current wind gust speed)